Regional Weather Roundup
Issued by NWS

Home | Current Version | Previous Version | Text Only | Print | Product List | Glossary Off
Versions: 1 2 3 4 5 6 7 8 9 10 11 12 13 14 15 16 17 18 19 20 21 22 23 24 25 26 27 28 29 30 31 32 33 34 35 36 37 38 39 40 41 42 43 44 45 46 47 48 49 50

000
ASUS43 KMPX 031110
RWRMN
WEATHER ROUNDUP FOR MINNESOTA
NATIONAL WEATHER SERVICE TWIN CITIES/CHANHASSEN MN
600 AM CDT THU SEP 03 2015


NOTE: "FAIR" INDICATES FEW OR NO CLOUDS BELOW 12,000 FEET WITH NO
SIGNIFICANT WEATHER AND/OR OBSTRUCTIONS TO VISIBILITY. N/A MEANS
CURRENT SKY AND/OR WEATHER CONDITIONS ARE NOT AVAILABLE.

MNZ060>063-068>070-031200-
   Twin Cities Metro

CITY           SKY/WX    TMP DP  RH WIND       PRES   REMARKS
TWIN CITIES    CLOUDY    68  66  93 E9        29.89F
ST PAUL        CLOUDY    68  66  93 SE6       29.90S
CRYSTAL        CLEAR     69  65  86 E5        29.88S
BLAINE         CLEAR     68  68 100 E5        29.90S
LAKEVILLE      FOG       66  66 100 CALM      29.90S VSB 1/4
EDEN PRAIRIE   FOG       68  67  96 E7        29.88S VSB 1/4
SOUTH ST PAUL  MOCLDY    67  65  94 CALM      29.90S
LAKE ELMO      FAIR      64  64 100 CALM      29.92S FOG
$$
MNZ001>005-007-008-013>017-022>024-027-028-031200-
   Northwest Minnesota

CITY           SKY/WX    TMP DP  RH WIND       PRES   REMARKS
BEMIDJI        CLOUDY    65  64  99 SE10      29.90S FOG
HALLOCK        CLOUDY    68  64  88 SE13      29.77F
ROSEAU         CLEAR     66  61  82 SE9       29.84S
WARROAD        CLEAR     66  63  88 SE8       29.86S
THIEF RVR FALL CLOUDY    66  66 100 SE10      29.83S
CROOKSTON      CLOUDY    72  68  88 S13       29.81S
FOSSTON        PTCLDY    66  64  94 SE13      29.85F
DETROIT LAKES  CLOUDY    70  66  88 SE14      29.87S
MOORHEAD       CLOUDY    72  70  94 SE12      29.80S FOG
PARK RAPIDS    CLOUDY    68  64  87 SE8       29.90S
MAHNOMEN       CLOUDY    69  67  93 SE13      29.84F
$$
MNZ006-009>011-018-025>026-031200-
   North Central Minnesota

CITY           SKY/WX    TMP DP  RH WIND       PRES   REMARKS
BAUDETTE       CLOUDY    63  62  97 SE10      29.89S
FLAG ISLAND    CLEAR     68  64  88 SE13      29.86S
INTL FALLS     CLOUDY    62  62 100 SE3       29.93S
WASKISH        CLOUDY    63  63 100 SE6       29.90S FOG
BIG FORK       CLOUDY    64  61  88 SE6       29.95S
LONGVILLE      CLOUDY    64  63  94 E3        29.93S
GRAND RAPIDS     N/A     63  61  94 SE6       29.95S VSB 1/2
CRANE LAKE     CLEAR     50  48  93 CALM      29.98S
COOK           CLOUDY    61  59  94 CALM      29.97S FOG
WALKER         CLOUDY    65  64  95 SE7       29.92R
$$
MNZ012-019>021-037-031200-
   Northeast Minnesota

CITY           SKY/WX    TMP DP  RH WIND       PRES   REMARKS
DULUTH         FOG       61  60  97 E10       29.97S VSB 1/4
ELY            FOG       57  55  94 CALM      29.99S VSB 1/4
HIBBING        FOG       61  60  97 E5        29.96F VSB 1
EVELETH        FOG       61  61 100 E6        29.98S VSB 1
DULUTH HARBOR  FOG       59  57  94 NE8       29.97S VSB 3/4
TWO HARBORS    HAZE      64  59  82 E6        29.96S VSB 1/4
SILVER BAY     CLOUDY    63  61  94 NE5       29.96S FOG
GRAND MARAIS     N/A     55  53  93 CALM      29.97R
G MARAIS ARPRT CLEAR     48  45  87 N5        30.02R
$$
MNZ029>031-032-039>041-046>048-054>057-064-031200-
   West Central Minnesota

CITY           SKY/WX    TMP DP  RH WIND       PRES   REMARKS
FERGUS FALLS   CLOUDY    70  70 100 SE12G17   29.83R
WHEATON        CLOUDY    68  68 100 SE13      29.83S FOG
MORRIS         FOG       70  70 100 SE12      29.83S VSB 1/2
ALEXANDRIA     CLOUDY    67  67 100 SE9       29.89S FOG
ELBOW LAKE     CLOUDY    68  68  99 SE9       29.84S FOG
WADENA         CLOUDY    68  64  88 SE9       29.89R
GLENWOOD       FOG       66  66 100 E8        29.88S VSB 1/4
APPLETON       FOG       72  68  88 E9        29.83S VSB 3/4
BENSON         FOG       70  66  88 SE7       29.85S VSB 3/4
ORTONVILLE     CLOUDY    70  68  94 SE8       29.82S VSB 3/4
MADISON        CLOUDY    72  70  94 SE9       29.83R FOG
WILLMAR        FOG       70  70 100 E10       29.88S VSB 1/2
$$
MNZ033>034-036-042>043-049>051-058-059-031200-
   Central Minnesota

CITY           SKY/WX    TMP DP  RH WIND       PRES   REMARKS
ST CLOUD       CLOUDY    65  64  97 E5        29.90S
SAUK CENTRE    CLOUDY    66  65  96 E8        29.89S
PAYNESVILLE    FOG       67  67  99 NE8       29.89S VSB 1
AITKIN         MOCLDY    63  57  82 CALM      29.93R
PINE RIVER     CLOUDY    64  64 100 E6        29.96S
BRAINERD       CLOUDY    66  64  93 VRB5      29.92S
STAPLES        CLOUDY    66  64  94 E5        29.90S
LONG PRAIRIE   CLOUDY    68  64  88 E6        29.90S
LITTLE FALLS   CLOUDY    66  63  88 E5        29.91S
LITCHFIELD     FOG       70  70 100 E8        29.89S VSB 1/4
BUFFALO        CLEAR     65  64  93 NE3       29.90S
MAPLE LAKE     PTCLDY    67  66  97 E3        29.90S FOG
$$
MNZ037-044-045-052-053-031200-
   East Central Minnesota

CITY           SKY/WX    TMP DP  RH WIND       PRES   REMARKS
PRINCETON      CLOUDY    66  64  94 NE5       29.91S
MORA           CLOUDY    63  63 100 E3        29.95R FOG
CAMBRIDGE      MOCLDY    66  59  77 CALM      29.90S HAZE
RUSH CITY      CLOUDY    64  62  96 CALM      29.93R
MOOSE LAKE     FOG       59  59 100 E5        29.94S VSB 1
HINCKLEY       FOG       63  63 100 CALM      29.94S VSB 1
CLOQUET        FOG       61  59  94 E8        29.97R VSB 3/4
MCGREGOR       CLOUDY    61  61 100 E6        29.95S
$$
MNZ071>073-080-081-089-090-097-098-031200-
   Southwest Minnesota

CITY           SKY/WX    TMP DP  RH WIND       PRES   REMARKS
MONTEVIDEO     FOG       70  70 100 SE7       29.86R VSB 1/2
GRANITE FALLS  FOG       69  69  99 E8        29.86S VSB 1/2
CANBY          FOG       67  66  96 SE7       29.84S VSB 3/4
MARSHALL       CLEAR     66  63  88 SE6       29.85S
REDWOOD FALLS  FOG       70  69  97 E6        29.85S VSB 3/4
OLIVIA         FOG       68  64  88 E7        29.86S VSB 1/2
PIPESTONE      CLEAR     68  66  94 SE5       29.85S FOG
WINDOM         CLEAR     68  66  94 CALM      29.87S FOG
WORTHINGTON    CLEAR     64  61  88 SE5       29.87S
JACKSON        CLEAR     68  66  94 S3        29.88S FOG
TRACY          CLEAR     71  69  95 S8        29.85S
SLAYTON        FOG       65  65 100 CALM      29.87S VSB 1/4
$$
MNZ065>067-074>077-082>085-091>093-031200-
   South Central Minnesota

CITY           SKY/WX    TMP DP  RH WIND       PRES   REMARKS
MANKATO        CLEAR     68  66  94 SE6       29.88S
NEW ULM        CLEAR     70  68  94 E5        29.87R FOG
ST JAMES       CLEAR     70  68  94 E5        29.88S
FAIRMONT       CLEAR     66  61  82 S6        29.87S
GLENCOE        FOG       69  70 100 E5        29.88S VSB 1/4
FARIBAULT      FOG       63  63 100 CALM      29.91R VSB 1/4
OWATONNA       CLEAR     66  64  94 SE3       29.90S FOG
WASECA         CLEAR     64  63  94 E3        29.91R FOG
ALBERT LEA     CLEAR     66  66 100 CALM      29.90S FOG
$$
MNZ078>079-086>088-094>096-031200-
   Southeast Minnesota

CITY           SKY/WX    TMP DP  RH WIND       PRES   REMARKS
ROCHESTER      MOCLDY    66  65  96 SE6       29.93S FOG
RED WING       CLOUDY    70  66  88 E3        29.90S FOG
STANTON        FOG       67  65  94 CALM      29.89S VSB 1/4
DODGE CENTER   CLEAR     64  64 100 SE5       29.92S FOG
WINONA         FOG       70  68  94 CALM      29.91S VSB 1/2
AUSTIN         CLEAR     68  66  94 SE5       29.91S FOG
PRESTON        CLOUDY    66  64  94 S6        29.94R FOG
$$
ABBREVIATIONS USED IN REMARKS
   TC - TEMPERATURES IN CELSIUS
  WCI - WIND CHILL INDEX
   HX - HEAT INDEX
  VSB - VISIBILITY
$$


USA.gov is the U.S. government's official web portal to all federal, state and local government web resources and services.